Flag for U.S.A. Weather past 2 weeks in Sunrise Manor, Nevada, U.S.A.

Now
79 °F

Clear.


Feels Like: 77 °F
Forecast: 53 / 89 °F
Wind: 2 mph from Northeast

Location: Nellis Air Force Base

Current Time: Mar 27, 2015 at 9:46:58 PM

Latest Report: Mar 27, 2015 at 7:58 PM


Visibility: 10 mi

Pressure: 29.97 "Hg

Humidity: 13%

Dew point: 24 °F

Location of Sunrise ManorLocation

Historic Weather in Sunrise Manor — Graph

°F

Sunrise Manor temperature yesterday

Maximum temperature yesterday: 80 °F (at 4:58 PM)
Minimum temperature yesterday: 59 °F (at 5:58 AM)
Average temperature yesterday: 68 °F

Past Weeks' High & Low Weather Summary

 TemperatureHumidityPressure
High87 °F (Mar 27, 4:58 PM)56% (Mar 19, 5:58 AM)30.23 "Hg (Mar 19, 5:58 AM)
Low49 °F (Mar 20, 6:58 AM)7% (Mar 19, 4:58 PM)29.79 "Hg (Mar 17, 5:58 PM)
Average69 °F24%30.00 "Hg
* Reported Mar 12 7:58 PM — Mar 27 7:58 PM, Sunrise Manor, Weather by CustomWeather, © 2015

Note: Actual official high and low records may vary slightly from our data, if they occured in-between our weather recording intervals... More about our weather records

Advertising

Sunrise Manor weather history for previous 24 hours

 ConditionsComfort  
Time TempWeatherWind HumidityBarometerVisibility
7:58 PM
Fri, Mar 27
79 °FClear.2 mph13%29.97 "Hg10 mi
6:58 PM82 °FSunny.7 mph12%29.96 "Hg10 mi
4:58 PM87 °FSunny.No wind10%29.96 "Hg10 mi
3:58 PM85 °FSunny.2 mph10%29.98 "Hg10 mi
2:58 PM85 °FSunny.3 mph11%30.01 "Hg10 mi
1:58 PM83 °FSunny.1 mph12%30.04 "Hg10 mi
12:58 PM81 °FSunny.6 mph14%30.09 "Hg10 mi
11:58 AM78 °FSunny.1 mph15%30.12 "Hg10 mi
10:58 AM76 °FSunny.No wind18%30.14 "Hg10 mi
9:58 AM68 °FSunny.No wind24%30.15 "Hg10 mi
8:58 AM61 °FSunny.No wind29%30.16 "Hg10 mi
7:58 AM57 °FSunny.No wind34%30.15 "Hg10 mi
6:58 AM53 °FClear.2 mph36%30.14 "Hg10 mi
5:58 AM53 °FClear.No wind35%30.11 "Hg10 mi
4:58 AM57 °FClear.No wind30%30.11 "Hg10 mi
3:58 AM58 °FClear.2 mph30%30.10 "Hg10 mi
2:58 AM59 °FClear.5 mph28%30.11 "Hg10 mi
12:58 AM60 °FClear.1 mph28%30.12 "Hg10 mi
11:58 PM
Thu, Mar 26
62 °FClear.No wind26%30.12 "Hg10 mi
10:58 PM61 °FClear.5 mph26%30.12 "Hg10 mi
9:58 PM65 °FClear.5 mph23%30.11 "Hg10 mi
Weather by CustomWeather, © 2015

See weather overviewHow to use our weather pages